Alexandria, MN

11:53 PM CST on December 05, 2019 (GMT -0600)
Chandler

Weather History for KAXN - October, 2019

Change the Weather History Date:

Wednesday, October 9, 2019

  Actual Average Record
Temperature  
Mean Temperature 62 °F -  
Max Temperature 73 °F 55 °F 79 °F (1980)
Min Temperature 52 °F 37 °F 24 °F (1964)
Degree Days  
Heating Degree Days 4    
Growing Degree Days 12 (Base 50)    
Moisture  
Dew Point 48 °F    
Average Humidity 63    
Maximum Humidity 80    
Minimum Humidity 45    
Precipitation  
Precipitation 0.00 in - - ()
Sea Level Pressure  
Sea Level Pressure 29.80 in    
Wind  
Wind Speed 15 mph ()    
Max Wind Speed 24 mph    
Max Gust Speed 33 mph    
Visibility 10.0 miles    
Events      
Averages and records for this station are not official NWS values.
T = Trace of Precipitation, MM = Missing Value Source: Averaged Metar Reports

Daily Weather History Graph

Daily Weather History Graph

Search for Another Location

Airport or City:

Astronomy

Oct. 09, 2019 Rise Set
Actual Time 7:30 AM CDT 6:46 PM CDT
Civil Twilight 7:00 AM CDT 7:16 PM CDT
Nautical Twilight 6:25 AM CDT 7:51 PM CDT
Astronomical Twilight 5:50 AM CDT 8:25 PM CDT
Moon 5:35 PM CDT (10/9) 2:59 AM CDT (10/9)
Length of Visible Light 12h 16m
Length of Day
11h 16m
Waxing Gibbous, 85% of the Moon is Illuminated
Oct 9
Waxing Gibbous
Oct 13
Full
Oct 21
Last Quarter
Oct 27
New
Nov 4
First Quarter

Hourly Weather History & Observations

Time (CDT) Temp. Dew Point Humidity Pressure Visibility Wind Dir Wind Speed Gust Speed Precip Events Conditions
12:53 AM 57.0 °F 43.0 °F 59% 29.80 in 10.0 mi South 17.3 mph 27.6 mph N/A   Clear
1:53 AM 55.9 °F 43.0 °F 62% 29.79 in 10.0 mi SSE 17.3 mph 24.2 mph N/A   Clear
2:53 AM 54.0 °F 44.1 °F 69% 29.79 in 10.0 mi SSE 13.8 mph - N/A   Clear
3:53 AM 54.0 °F 44.1 °F 69% 29.78 in 10.0 mi SSE 18.4 mph - N/A   Clear
4:53 AM 53.1 °F 45.0 °F 74% 29.77 in 10.0 mi SSE 16.1 mph - N/A   Clear
5:53 AM 53.1 °F 46.0 °F 77% 29.77 in 10.0 mi SSE 17.3 mph 24.2 mph N/A   Clear
6:53 AM 52.0 °F 46.0 °F 80% 29.78 in 10.0 mi SSE 16.1 mph - N/A   Clear
7:53 AM 52.0 °F 46.0 °F 80% 29.78 in 10.0 mi SSE 13.8 mph - N/A   Clear
8:53 AM 55.9 °F 46.9 °F 72% 29.79 in 10.0 mi SSE 17.3 mph 26.5 mph N/A   Clear
9:53 AM 59.0 °F 48.0 °F 67% 29.79 in 10.0 mi SSE 16.1 mph 27.6 mph N/A   Clear
10:53 AM 62.1 °F 48.0 °F 60% 29.78 in 10.0 mi SSE 24.2 mph 33.4 mph N/A   Clear
11:53 AM 64.9 °F 48.9 °F 56% 29.78 in 10.0 mi South 20.7 mph 29.9 mph N/A   Clear
12:53 PM 66.9 °F 48.9 °F 52% 29.78 in 10.0 mi South 21.9 mph 32.2 mph N/A   Clear
1:53 PM 68.0 °F 48.9 °F 50% 29.75 in 10.0 mi SSE 16.1 mph 26.5 mph N/A   Clear
2:53 PM 71.1 °F 48.9 °F 45% 29.75 in 10.0 mi South 23.0 mph 32.2 mph N/A   Clear
3:53 PM 71.1 °F 48.9 °F 45% 29.76 in 10.0 mi South 20.7 mph 32.2 mph N/A   Clear
4:53 PM 70.0 °F 50.0 °F 49% 29.77 in 10.0 mi South 19.6 mph - N/A   Partly Cloudy
5:53 PM 69.1 °F 51.1 °F 53% 29.79 in 10.0 mi South 11.5 mph - N/A   Overcast
6:53 PM 66.0 °F 50.0 °F 56% 29.82 in 10.0 mi South 16.1 mph 26.5 mph N/A   Mostly Cloudy
7:53 PM 64.0 °F 51.1 °F 63% 29.84 in 10.0 mi SSE 13.8 mph - N/A   Mostly Cloudy
8:53 PM 63.0 °F 50.0 °F 63% 29.86 in 10.0 mi SSE 15.0 mph - N/A   Mostly Cloudy
9:53 PM 60.1 °F 50.0 °F 69% 29.86 in 10.0 mi SSE 13.8 mph - N/A   Partly Cloudy
10:53 PM 59.0 °F 48.9 °F 69% 29.89 in 10.0 mi SSE 11.5 mph - N/A   Clear
11:53 PM 57.9 °F 48.0 °F 70% 29.91 in 10.0 mi South 15.0 mph 21.9 mph N/A   Clear